Regional Weather Roundup
Issued by NWS

Home | Current Version | Previous Version | Text Only | Print | Product List | Glossary On
Versions: 1 2 3 4 5 6 7 8 9 10 11 12 13 14 15 16 17 18 19 20 21 22 23 24 25 26 27 28 29 30 31 32 33 34 35 36 37 38 39 40 41 42 43 44 45 46 47 48 49 50
000
ASUS43 KLSX 011959
RWRMO

WEATHER SUMMARY FOR MISSOURI
NATIONAL WEATHER SERVICE SPRINGFIELD MO
200 PM CST SUN FEB 01 2015

NOTE: "FAIR" INDICATES FEW OR NO CLOUDS BELOW 12,000 FEET WITH NO
       SIGNIFICANT WEATHER AND/OR OBSTRUCTIONS TO VISIBILITY.
       CURRENT SKY AND/OR WEATHER CONDITIONS ARE NOT AVAILABLE FOR
       CHILLICOTHE AND FARMINGTON.

MOZ001>031-035>038-043-044-053-054-012100-
...NORTHERN AND WESTERN MISSOURI...

CITY           SKY/WX    TMP DP  RH WIND       PRES   REMARKS
KANSAS CTY INT LGT SNOW  24  20  84 NW22G37   29.87R FOG     WCI   9
KANSAS C DTWN  FLURRIES  27  20  75 NW25G37   29.87R WCI  12
LEE`S SUMMIT   CLOUDY    27  22  81 NW23G32   29.84R WCI  12
ST JOSEPH      SNOW      23  19  85 NW32G40   29.91S VSB 1/4 WCI   5
CHILLICOTHE      N/A     35  32  88 N8        29.77R WCI  29
KIRKSVILLE     LGT SNOW  31  30  96 N17G26    29.71R VSB 3/4 WCI  19

$$
MOZ066>068-077>081-088>096-101>105-012100-
...SOUTHWEST MISSOURI...

CITY           SKY/WX    TMP DP  RH WIND       PRES   REMARKS
SPRINGFIELD    CLOUDY    36  32  85 NW15G29   29.79R WCI  27
JOPLIN         CLOUDY    31  26  82 NW18G33   29.91R WCI  19

$$
MOZ032>034-039>042-045>050-055>058-069>072-012100-
...CENTRAL MISSOURI...

CITY           SKY/WX    TMP DP  RH WIND       PRES   REMARKS
COLUMBIA       CLOUDY    36  35  96 NW13      29.68S FOG     WCI  27
JEFFERSON CITY CLOUDY    38  35  89 W15       29.69S FOG     WCI  29
ROLLA          CLOUDY    41  38  89 W10       29.64S
SEDALIA        FLURRIES  35  32  88 NW15G24   29.75R WCI  25
OSAGE BEACH    PTSUNNY   37  34  87 W9G21     29.71R

$$
MOZ051-052-059>065-012100-
...EAST CENTRAL MISSOURI...

CITY           SKY/WX    TMP DP  RH WIND       PRES   REMARKS
ST LOUIS INTL  CLOUDY    41  37  86 W9        29.64S
SPIRIT OF STL  CLOUDY    41  37  86 W7        29.64S
ST CHARLES     CLOUDY    39  37  92 W8        29.64F

$$
MOZ072>076-082>087-097>100-106>115-012100-
...SOUTH CENTRAL AND SOUTHEAST MISSOURI...

CITY           SKY/WX    TMP DP  RH WIND       PRES   REMARKS
CAPE GIRARDEAU CLOUDY    47  46  97 W9        29.64F
FARMINGTON     CLOUDY    45  41  87 W10       29.66S
POPLAR BLUFF   CLOUDY    50  47  89 W7        29.65F
WEST PLAINS    CLOUDY    45  42  89 W14G21    29.69S

$$



USA.gov is the U.S. government's official web portal to all federal, state and local government web resources and services.